Language: 


Des rapports , des résumés tant et plus, au choix de chacun....


Données statistiques de la station
Quotidien Rapport Juillet 2, 2017 Unités:  Métrique    Anglais   les deux
« Précédent Jour
Suivant Jour »
Quotidien Hebdomadaire Mensuel Annuel Actuel
  Haut: Bas: Moyen:
Température: 23.8 °C 11.4 °C 18.1 °C
Pt de rosée: 18.0 °C 9.0 °C 13.7 °C
Humidité: 95 % 43 % 77 %
Vitesse du vent: 21.2 km/h 0.0 km/h 7 km/h
Rafales: 21.2 km/h - -
Vent:- - West
Pression: 1022.9 hPa 1016.8 hPa -
Précipitation: 0.3 mm    
Historical Graphs
 
 
Données statistiques pour Juillet 2, 2017
Heure Température Point de rosée Pression Vent Vitesse du vent Refales Humidité Pluie (taux horaire)
00:04 17.4 °C 13.0 °C 1018.2 hPa West 15.8 km/h 15.8 km/h 75 % 0.0 mm
00:09 17.4 °C 13.0 °C 1018.2 hPa SW 21.2 km/h 21.2 km/h 74 % 0.0 mm
00:14 17.3 °C 13.0 °C 1018.2 hPa WSW 12.6 km/h 21.2 km/h 75 % 0.0 mm
00:19 17.3 °C 13.0 °C 1018.2 hPa West 10.1 km/h 16.9 km/h 75 % 0.0 mm
00:24 17.2 °C 13.0 °C 1018.2 hPa WSW 9.7 km/h 16.9 km/h 76 % 0.0 mm
00:29 17.2 °C 13.0 °C 1018.2 hPa WSW 12.2 km/h 19.5 km/h 77 % 0.0 mm
00:34 17.2 °C 13.0 °C 1018.2 hPa WSW 15.8 km/h 19.5 km/h 78 % 0.0 mm
00:35 17.2 °C 13.0 °C 1018.2 hPa West 9.7 km/h 19.5 km/h 78 % 0.0 mm
00:40 17.1 °C 13.0 °C 1018.2 hPa WSW 11.9 km/h 17.7 km/h 79 % 0.0 mm
00:45 17.1 °C 13.0 °C 1018.2 hPa SSW 12.2 km/h 20.6 km/h 79 % 0.0 mm
00:50 17.0 °C 14.0 °C 1018.2 hPa WSW 9.3 km/h 20.6 km/h 80 % 0.0 mm
00:55 17.0 °C 14.0 °C 1018.2 hPa West 9.0 km/h 20.6 km/h 80 % 0.0 mm
01:00 17.0 °C 14.0 °C 1018.2 hPa WSW 6.9 km/h 20.6 km/h 80 % 0.0 mm
01:05 17.0 °C 14.0 °C 1018.2 hPa WSW 9.0 km/h 15.1 km/h 80 % 0.0 mm
01:10 16.9 °C 14.0 °C 1018.2 hPa WSW 9.3 km/h 17.2 km/h 81 % 0.0 mm
01:15 16.9 °C 14.0 °C 1018.2 hPa WSW 12.6 km/h 17.7 km/h 82 % 0.0 mm
01:20 16.9 °C 14.0 °C 1018.2 hPa WSW 12.6 km/h 17.7 km/h 82 % 0.0 mm
01:25 16.8 °C 14.0 °C 1018.2 hPa WSW 7.9 km/h 15.4 km/h 82 % 0.0 mm
01:26 16.8 °C 14.0 °C 1018.2 hPa WSW 7.9 km/h 15.4 km/h 82 % 0.0 mm
01:31 16.8 °C 14.0 °C 1018.2 hPa SW 10.1 km/h 15.4 km/h 82 % 0.0 mm
01:36 16.7 °C 14.0 °C 1018.2 hPa West 9.7 km/h 12.2 km/h 82 % 0.0 mm
01:41 16.7 °C 14.0 °C 1018.2 hPa WSW 6.4 km/h 11.9 km/h 83 % 0.0 mm
01:46 16.6 °C 14.0 °C 1018.2 hPa WSW 7.9 km/h 12.2 km/h 83 % 0.0 mm
01:51 16.5 °C 14.0 °C 1018.2 hPa West 11.9 km/h 13.0 km/h 84 % 0.0 mm
01:56 16.5 °C 14.0 °C 1018.2 hPa WSW 11.1 km/h 13.0 km/h 84 % 0.0 mm
02:01 16.5 °C 14.0 °C 1018.2 hPa West 9.7 km/h 13.7 km/h 84 % 0.0 mm
02:06 16.4 °C 14.0 °C 1018.2 hPa West 6.9 km/h 13.7 km/h 85 % 0.0 mm
02:11 16.3 °C 14.0 °C 1018.2 hPa WSW 13.0 km/h 13.7 km/h 85 % 0.0 mm
02:16 16.2 °C 14.0 °C 1018.2 hPa WSW 10.5 km/h 14.3 km/h 85 % 0.0 mm
02:21 16.1 °C 14.0 °C 1018.2 hPa WSW 13.7 km/h 16.6 km/h 85 % 0.0 mm
02:26 15.9 °C 14.0 °C 1018.2 hPa West 7.6 km/h 17.2 km/h 85 % 0.0 mm
02:32 15.8 °C 13.0 °C 1018.2 hPa WSW 12.6 km/h 17.2 km/h 86 % 0.0 mm
02:37 15.6 °C 13.0 °C 1018.2 hPa WSW 13.7 km/h 14.3 km/h 86 % 0.0 mm
02:42 15.5 °C 14.0 °C 1018.2 hPa WSW 10.1 km/h 16.3 km/h 87 % 0.0 mm
02:47 15.4 °C 13.0 °C 1018.2 hPa West 9.3 km/h 17.7 km/h 87 % 0.0 mm
02:52 15.3 °C 13.0 °C 1018.2 hPa WSW 9.0 km/h 17.7 km/h 88 % 0.0 mm
02:53 15.3 °C 13.0 °C 1018.2 hPa WSW 10.1 km/h 17.7 km/h 88 % 0.0 mm
02:58 15.2 °C 13.0 °C 1018.2 hPa WSW 9.7 km/h 13.7 km/h 88 % 0.0 mm
03:03 15.1 °C 13.0 °C 1018.2 hPa SW 10.1 km/h 13.0 km/h 89 % 0.0 mm
03:08 14.9 °C 13.0 °C 1018.2 hPa WSW 13.0 km/h 13.0 km/h 89 % 0.0 mm
03:13 14.9 °C 13.0 °C 1018.2 hPa West 11.6 km/h 13.0 km/h 90 % 0.0 mm
03:18 14.8 °C 13.0 °C 1018.2 hPa WSW 10.1 km/h 14.0 km/h 91 % 0.0 mm
03:23 14.8 °C 13.0 °C 1018.2 hPa WSW 8.7 km/h 16.3 km/h 91 % 0.0 mm
03:28 14.8 °C 13.0 °C 1018.2 hPa WSW 14.3 km/h 16.9 km/h 92 % 0.0 mm
03:33 14.8 °C 13.0 °C 1018.2 hPa WSW 14.0 km/h 16.9 km/h 92 % 0.0 mm
03:38 14.7 °C 13.0 °C 1018.2 hPa WSW 10.5 km/h 15.8 km/h 92 % 0.0 mm
03:44 14.7 °C 13.0 °C 1018.2 hPa WSW 12.6 km/h 14.0 km/h 92 % 0.0 mm
03:49 14.7 °C 14.0 °C 1018.2 hPa West 10.1 km/h 15.1 km/h 93 % 0.0 mm
03:54 14.6 °C 14.0 °C 1018.2 hPa WSW 11.1 km/h 15.1 km/h 93 % 0.0 mm
03:59 14.6 °C 14.0 °C 1018.2 hPa West 13.0 km/h 15.4 km/h 93 % 0.0 mm
04:04 14.6 °C 14.0 °C 1016.8 hPa West 10.5 km/h 15.4 km/h 93 % 0.0 mm
04:09 14.6 °C 14.0 °C 1016.8 hPa West 10.1 km/h 14.0 km/h 93 % 0.0 mm
04:14 14.6 °C 14.0 °C 1016.8 hPa WSW 9.0 km/h 14.3 km/h 93 % 0.0 mm
04:19 14.6 °C 14.0 °C 1018.2 hPa WSW 10.1 km/h 14.3 km/h 93 % 0.0 mm
04:24 14.7 °C 14.0 °C 1018.2 hPa West 8.7 km/h 15.8 km/h 94 % 0.0 mm
04:29 14.8 °C 14.0 °C 1018.2 hPa WSW 9.3 km/h 15.8 km/h 94 % 0.0 mm
04:34 14.9 °C 14.0 °C 1016.8 hPa WSW 13.7 km/h 15.8 km/h 94 % 0.0 mm
04:39 14.9 °C 14.0 °C 1016.8 hPa SW 9.7 km/h 15.8 km/h 94 % 0.0 mm
04:44 15.0 °C 14.0 °C 1016.8 hPa WSW 15.4 km/h 15.4 km/h 93 % 0.0 mm
04:49 15.0 °C 14.0 °C 1016.8 hPa West 11.6 km/h 15.4 km/h 93 % 0.0 mm
04:54 15.1 °C 14.0 °C 1016.8 hPa SW 9.3 km/h 12.6 km/h 93 % 0.0 mm
04:59 15.1 °C 14.0 °C 1016.8 hPa West 6.4 km/h 14.0 km/h 93 % 0.0 mm
05:04 15.2 °C 14.0 °C 1016.8 hPa WSW 12.2 km/h 14.0 km/h 93 % 0.0 mm
05:09 15.3 °C 14.0 °C 1016.8 hPa WSW 17.2 km/h 17.2 km/h 93 % 0.0 mm
05:14 15.4 °C 14.0 °C 1016.8 hPa WSW 6.4 km/h 17.2 km/h 93 % 0.0 mm
05:19 15.4 °C 14.0 °C 1016.8 hPa WSW 10.1 km/h 17.2 km/h 93 % 0.0 mm
05:24 15.4 °C 14.0 °C 1016.8 hPa SW 9.3 km/h 13.7 km/h 93 % 0.0 mm
05:29 15.4 °C 14.0 °C 1016.8 hPa WSW 10.1 km/h 13.7 km/h 93 % 0.0 mm
05:34 15.5 °C 15.0 °C 1016.8 hPa WSW 5.5 km/h 13.0 km/h 94 % 0.0 mm
05:40 15.5 °C 15.0 °C 1016.8 hPa WSW 10.1 km/h 15.4 km/h 94 % 0.0 mm
05:45 15.5 °C 15.0 °C 1016.8 hPa WSW 10.8 km/h 15.4 km/h 94 % 0.0 mm
05:50 15.5 °C 15.0 °C 1016.8 hPa WSW 6.1 km/h 14.0 km/h 94 % 0.0 mm
05:55 15.5 °C 15.0 °C 1016.8 hPa Calm   10.8 km/h 94 % 0.0 mm
06:00 15.5 °C 15.0 °C 1016.8 hPa WSW 9.7 km/h 11.9 km/h 94 % 0.0 mm
06:05 15.5 °C 15.0 °C 1016.8 hPa WSW 5.8 km/h 11.9 km/h 94 % 0.0 mm
06:10 15.5 °C 15.0 °C 1016.8 hPa WSW 7.9 km/h 11.1 km/h 94 % 0.0 mm
06:15 15.6 °C 15.0 °C 1016.8 hPa SSW 4.0 km/h 11.1 km/h 95 % 0.0 mm
06:20 15.6 °C 15.0 °C 1016.8 hPa WSW 5.8 km/h 10.1 km/h 95 % 0.0 mm
06:25 15.6 °C 15.0 °C 1016.8 hPa West 5.8 km/h 10.5 km/h 95 % 0.0 mm
06:30 15.6 °C 15.0 °C 1016.8 hPa WSW 6.4 km/h 10.5 km/h 95 % 0.0 mm
06:35 15.7 °C 15.0 °C 1016.8 hPa SW 6.1 km/h 10.1 km/h 95 % 0.0 mm
06:40 15.8 °C 15.0 °C 1016.8 hPa WSW 6.4 km/h 10.1 km/h 95 % 0.0 mm
06:45 15.9 °C 15.0 °C 1016.8 hPa WSW 7.9 km/h 9.7 km/h 95 % 0.0 mm
06:50 16.0 °C 15.0 °C 1018.2 hPa SW 4.7 km/h 10.5 km/h 94 % 0.0 mm
06:55 16.1 °C 15.0 °C 1018.2 hPa SW 4.3 km/h 10.5 km/h 94 % 0.0 mm
07:00 16.2 °C 15.0 °C 1018.2 hPa WSW 6.9 km/h 11.6 km/h 94 % 0.0 mm
07:02 16.2 °C 15.0 °C 1016.8 hPa SW 9.0 km/h 11.6 km/h 94 % 0.0 mm
07:07 16.3 °C 15.0 °C 1016.8 hPa WSW 7.9 km/h 12.6 km/h 94 % 0.0 mm
07:12 16.3 °C 15.0 °C 1016.8 hPa WSW 9.0 km/h 14.0 km/h 94 % 0.0 mm
07:17 16.3 °C 15.0 °C 1018.2 hPa West 5.0 km/h 14.0 km/h 94 % 0.0 mm
07:18 16.3 °C 15.0 °C 1018.2 hPa WSW 8.7 km/h 14.0 km/h 94 % 0.0 mm
07:23 16.4 °C 15.0 °C 1018.2 hPa West 6.9 km/h 14.0 km/h 94 % 0.0 mm
07:28 16.4 °C 15.0 °C 1018.2 hPa WSW 11.6 km/h 12.2 km/h 94 % 0.0 mm
07:33 16.4 °C 15.0 °C 1018.2 hPa WSW 9.3 km/h 12.2 km/h 94 % 0.0 mm
07:38 16.5 °C 16.0 °C 1018.2 hPa WSW 7.9 km/h 11.6 km/h 94 % 0.0 mm
07:43 16.5 °C 16.0 °C 1018.2 hPa SW 5.5 km/h 10.5 km/h 94 % 0.0 mm
07:48 16.6 °C 16.0 °C 1018.2 hPa West 10.1 km/h 12.6 km/h 94 % 0.0 mm
07:53 16.7 °C 16.0 °C 1018.2 hPa West 6.9 km/h 12.6 km/h 93 % 0.0 mm
07:58 16.7 °C 16.0 °C 1018.2 hPa West 6.1 km/h 12.2 km/h 93 % 0.0 mm
08:03 16.8 °C 16.0 °C 1018.2 hPa WSW 10.1 km/h 14.0 km/h 93 % 0.0 mm
08:08 16.8 °C 16.0 °C 1018.2 hPa WSW 10.5 km/h 14.0 km/h 93 % 0.0 mm
08:13 16.9 °C 16.0 °C 1018.2 hPa West 9.3 km/h 16.3 km/h 93 % 0.0 mm
08:18 16.9 °C 16.0 °C 1018.2 hPa West 5.8 km/h 16.3 km/h 93 % 0.0 mm
08:23 17.0 °C 16.0 °C 1018.2 hPa WSW 9.7 km/h 12.2 km/h 92 % 0.0 mm
08:28 17.1 °C 16.0 °C 1018.2 hPa WSW 6.1 km/h 11.6 km/h 92 % 0.0 mm
08:33 17.2 °C 16.0 °C 1018.2 hPa West 7.9 km/h 13.0 km/h 92 % 0.0 mm
08:38 17.3 °C 16.0 °C 1018.2 hPa West 13.7 km/h 13.7 km/h 92 % 0.0 mm
08:43 17.3 °C 16.0 °C 1018.2 hPa WSW 10.5 km/h 13.7 km/h 91 % 0.0 mm
08:48 17.5 °C 16.0 °C 1018.2 hPa West 14.0 km/h 14.0 km/h 91 % 0.0 mm
08:53 17.6 °C 16.0 °C 1018.2 hPa WNW 9.7 km/h 14.0 km/h 90 % 0.0 mm
08:58 17.6 °C 16.0 °C 1018.2 hPa West 9.0 km/h 17.2 km/h 89 % 0.0 mm
09:03 17.7 °C 16.0 °C 1018.2 hPa West 11.9 km/h 17.2 km/h 89 % 0.0 mm
09:08 17.8 °C 16.0 °C 1018.2 hPa WSW 11.6 km/h 12.6 km/h 89 % 0.0 mm
09:13 17.7 °C 16.0 °C 1018.2 hPa West 7.6 km/h 13.0 km/h 87 % 0.0 mm
09:18 17.7 °C 16.0 °C 1018.2 hPa WNW 9.0 km/h 13.0 km/h 87 % 0.0 mm
09:23 17.7 °C 16.0 °C 1018.2 hPa West 12.6 km/h 14.0 km/h 87 % 0.0 mm
09:28 17.9 °C 16.0 °C 1018.2 hPa West 4.3 km/h 14.0 km/h 87 % 0.0 mm
09:33 17.9 °C 16.0 °C 1018.8 hPa West 15.4 km/h 15.4 km/h 87 % 0.0 mm
09:38 18.0 °C 16.0 °C 1018.8 hPa West 7.6 km/h 15.4 km/h 86 % 0.0 mm
09:43 18.1 °C 16.0 °C 1018.8 hPa NW 6.1 km/h 15.1 km/h 85 % 0.0 mm
09:48 18.0 °C 16.0 °C 1018.8 hPa NW 5.0 km/h 15.1 km/h 85 % 0.0 mm
09:53 18.0 °C 16.0 °C 1018.8 hPa NW 4.7 km/h 11.6 km/h 85 % 0.0 mm
09:58 17.9 °C 16.0 °C 1018.8 hPa WSW 6.4 km/h 10.5 km/h 85 % 0.0 mm
10:04 17.9 °C 16.0 °C 1018.8 hPa Calm   10.5 km/h 85 % 0.0 mm
10:09 18.0 °C 16.0 °C 1018.8 hPa WNW 4.7 km/h 10.1 km/h 85 % 0.0 mm
10:14 17.9 °C 16.0 °C 1018.8 hPa Calm   10.1 km/h 85 % 0.0 mm
10:19 18.0 °C 16.0 °C 1018.8 hPa NW 5.8 km/h 10.1 km/h 85 % 0.0 mm
10:24 17.9 °C 16.0 °C 1018.8 hPa North 4.7 km/h 9.7 km/h 86 % 0.0 mm
10:29 17.8 °C 15.0 °C 1018.8 hPa West 8.7 km/h 9.7 km/h 86 % 0.0 mm
10:34 17.7 °C 16.0 °C 1018.8 hPa West 7.9 km/h 10.1 km/h 87 % 0.0 mm
10:39 17.7 °C 16.0 °C 1018.8 hPa WNW 7.6 km/h 10.1 km/h 87 % 0.0 mm
10:44 17.7 °C 16.0 °C 1018.8 hPa WNW 4.0 km/h 9.3 km/h 88 % 0.0 mm
10:49 17.8 °C 16.0 °C 1018.2 hPa West 3.5 km/h 9.7 km/h 88 % 0.0 mm
10:54 17.8 °C 16.0 °C 1018.2 hPa Calm   9.7 km/h 88 % 0.0 mm
10:59 17.7 °C 16.0 °C 1018.2 hPa WNW 9.0 km/h 11.1 km/h 88 % 0.0 mm
11:05 17.8 °C 16.0 °C 1018.2 hPa WSW 9.3 km/h 11.1 km/h 89 % 0.0 mm
11:10 17.9 °C 16.0 °C 1018.2 hPa West 7.6 km/h 9.3 km/h 89 % 0.0 mm
11:15 18.2 °C 17.0 °C 1018.2 hPa NNW 4.0 km/h 9.0 km/h 90 % 0.0 mm
11:20 18.4 °C 17.0 °C 1018.2 hPa Calm   11.6 km/h 91 % 0.0 mm
11:25 18.4 °C 17.0 °C 1018.2 hPa Calm   11.6 km/h 90 % 0.0 mm
11:30 18.4 °C 17.0 °C 1018.2 hPa NW 7.6 km/h 9.7 km/h 90 % 0.0 mm
11:35 18.3 °C 17.0 °C 1018.8 hPa West 7.9 km/h 13.0 km/h 90 % 0.0 mm
11:40 18.1 °C 16.0 °C 1018.8 hPa NNW 17.2 km/h 17.2 km/h 90 % 0.0 mm
11:41 18.0 °C 16.0 °C 1018.8 hPa NNW 10.5 km/h 17.2 km/h 90 % 0.0 mm
11:46 18.0 °C 16.0 °C 1018.8 hPa Calm   17.2 km/h 90 % 0.0 mm
11:51 18.2 °C 17.0 °C 1018.8 hPa WSW 3.2 km/h 11.9 km/h 90 % 0.0 mm
11:56 18.6 °C 17.0 °C 1018.8 hPa West 5.5 km/h 12.2 km/h 91 % 0.0 mm
12:01 18.6 °C 17.0 °C 1018.8 hPa West 4.3 km/h 12.2 km/h 90 % 0.0 mm
12:07 18.7 °C 17.0 °C 1018.8 hPa West 7.9 km/h 11.6 km/h 91 % 0.0 mm
12:12 18.8 °C 17.0 °C 1018.8 hPa West 9.0 km/h 11.6 km/h 90 % 0.0 mm
12:17 18.6 °C 17.0 °C 1019.9 hPa NNW 5.0 km/h 10.1 km/h 90 % 0.0 mm
12:22 18.2 °C 17.0 °C 1019.9 hPa NW 6.9 km/h 11.9 km/h 90 % 0.0 mm
12:27 17.9 °C 17.0 °C 1019.9 hPa North 8.7 km/h 11.9 km/h 91 % 0.0 mm
12:32 17.9 °C 17.0 °C 1019.9 hPa NNW 11.9 km/h 15.8 km/h 92 % 0.3 mm
12:42 17.5 °C 16.0 °C 1019.9 hPa WNW 10.1 km/h 17.7 km/h 91 % 0.3 mm
12:47 17.9 °C 17.0 °C 1019.9 hPa NE 6.4 km/h 14.0 km/h 91 % 0.3 mm
12:48 18.0 °C 17.0 °C 1019.9 hPa North 5.8 km/h 14.0 km/h 91 % 0.3 mm
12:53 18.4 °C 17.0 °C 1019.9 hPa North 3.5 km/h 14.0 km/h 91 % 0.3 mm
12:58 18.9 °C 18.0 °C 1019.9 hPa NW 9.0 km/h 9.7 km/h 91 % 0.3 mm
13:03 19.5 °C 18.0 °C 1019.9 hPa West 4.0 km/h 10.5 km/h 90 % 0.3 mm
13:08 19.8 °C 18.0 °C 1019.9 hPa Calm   11.6 km/h 89 % 0.3 mm
13:13 19.6 °C 18.0 °C 1019.9 hPa NNW 9.0 km/h 11.6 km/h 87 % 0.3 mm
13:18 19.8 °C 18.0 °C 1019.9 hPa North 4.3 km/h 10.5 km/h 87 % 0.3 mm
13:23 20.2 °C 18.0 °C 1019.9 hPa NNE 10.1 km/h 10.1 km/h 86 % 0.3 mm
13:28 19.7 °C 17.0 °C 1019.9 hPa WNW 5.0 km/h 12.2 km/h 85 % 0.0 mm
13:33 19.8 °C 17.0 °C 1019.9 hPa NW 5.8 km/h 12.2 km/h 86 % 0.0 mm
13:38 19.7 °C 17.0 °C 1019.9 hPa NNW 8.7 km/h 12.6 km/h 86 % 0.0 mm
13:43 19.1 °C 16.0 °C 1019.9 hPa North 5.0 km/h 17.7 km/h 84 % 0.0 mm
13:48 19.1 °C 17.0 °C 1020.9 hPa Calm   17.7 km/h 86 % 0.0 mm
13:53 18.9 °C 17.0 °C 1020.9 hPa North 10.1 km/h 11.9 km/h 86 % 0.0 mm
13:58 18.8 °C 16.0 °C 1020.9 hPa NNE 6.1 km/h 11.9 km/h 86 % 0.0 mm
14:03 18.7 °C 17.0 °C 1020.9 hPa NNW 9.3 km/h 11.9 km/h 87 % 0.0 mm
14:08 18.5 °C 16.0 °C 1020.9 hPa NNW 8.7 km/h 16.9 km/h 86 % 0.0 mm
14:13 18.7 °C 17.0 °C 1020.9 hPa NNW 5.8 km/h 16.9 km/h 87 % 0.0 mm
14:19 18.8 °C 16.0 °C 1020.9 hPa WNW 5.8 km/h 13.7 km/h 86 % 0.0 mm
14:20 18.8 °C 16.0 °C 1020.9 hPa NE 7.9 km/h 13.7 km/h 86 % 0.0 mm
14:24 19.0 °C 17.0 °C 1020.9 hPa North 9.0 km/h 13.7 km/h 86 % 0.0 mm
14:29 19.1 °C 17.0 °C 1020.9 hPa NNW 1.8 km/h 12.2 km/h 86 % 0.0 mm
14:34 19.5 °C 17.0 °C 1020.9 hPa NNE 6.4 km/h 12.2 km/h 85 % 0.0 mm
14:39 20.8 °C 18.0 °C 1020.9 hPa North 9.0 km/h 10.1 km/h 84 % 0.0 mm
14:44 20.7 °C 17.0 °C 1020.9 hPa North 7.6 km/h 11.6 km/h 79 % 0.0 mm
14:49 20.7 °C 17.0 °C 1020.9 hPa NNW 4.7 km/h 11.6 km/h 78 % 0.0 mm
14:54 20.5 °C 16.0 °C 1020.9 hPa North 7.2 km/h 13.7 km/h 76 % 0.0 mm
14:59 20.6 °C 16.0 °C 1020.9 hPa WNW 10.1 km/h 13.7 km/h 76 % 0.0 mm
15:04 21.2 °C 17.0 °C 1020.9 hPa WNW 9.3 km/h 10.5 km/h 74 % 0.0 mm
15:09 20.8 °C 15.0 °C 1020.9 hPa North 8.7 km/h 14.0 km/h 71 % 0.0 mm
15:14 20.9 °C 16.0 °C 1020.9 hPa North 9.7 km/h 14.0 km/h 72 % 0.0 mm
15:19 21.0 °C 16.0 °C 1020.9 hPa West 11.6 km/h 14.0 km/h 71 % 0.0 mm
15:20 21.0 °C 16.0 °C 1020.9 hPa NNW 11.6 km/h 14.0 km/h 71 % 0.0 mm
15:25 21.6 °C 16.0 °C 1020.9 hPa WNW 5.8 km/h 13.0 km/h 69 % 0.0 mm
15:30 21.4 °C 15.0 °C 1020.9 hPa North 9.3 km/h 13.0 km/h 69 % 0.0 mm
15:35 21.1 °C 15.0 °C 1019.9 hPa North 1.8 km/h 11.1 km/h 69 % 0.0 mm
15:40 21.5 °C 16.0 °C 1019.9 hPa NW 9.3 km/h 11.9 km/h 68 % 0.0 mm
15:45 21.3 °C 15.0 °C 1019.9 hPa West 6.1 km/h 11.9 km/h 69 % 0.0 mm
15:50 21.1 °C 15.0 °C 1020.9 hPa Calm   10.5 km/h 67 % 0.0 mm
15:55 21.2 °C 15.0 °C 1020.9 hPa North 6.4 km/h 12.6 km/h 67 % 0.0 mm
15:58 21.6 °C 15.0 °C 1020.9 hPa NNE 6.4 km/h 12.6 km/h 67 % 0.0 mm
16:03 22.2 °C 15.0 °C 1020.9 hPa North 8.7 km/h 13.7 km/h 62 % 0.0 mm
16:08 21.8 °C 14.0 °C 1020.9 hPa North 9.7 km/h 14.8 km/h 62 % 0.0 mm
16:13 21.7 °C 14.0 °C 1020.9 hPa NNW 2.6 km/h 14.8 km/h 62 % 0.0 mm
16:18 21.2 °C 13.0 °C 1020.9 hPa NW 4.3 km/h 14.0 km/h 61 % 0.0 mm
16:23 21.6 °C 14.0 °C 1020.9 hPa North 4.7 km/h 14.0 km/h 63 % 0.0 mm
16:28 22.2 °C 14.0 °C 1020.9 hPa NNW 9.7 km/h 13.7 km/h 60 % 0.0 mm
16:33 21.9 °C 14.0 °C 1020.9 hPa NNE 6.1 km/h 13.7 km/h 61 % 0.0 mm
16:38 22.0 °C 14.0 °C 1020.9 hPa East 6.1 km/h 12.6 km/h 59 % 0.0 mm
16:43 22.3 °C 14.0 °C 1020.9 hPa North 9.0 km/h 12.2 km/h 59 % 0.0 mm
16:48 22.3 °C 14.0 °C 1020.9 hPa North 6.4 km/h 16.3 km/h 59 % 0.0 mm
16:53 22.5 °C 14.0 °C 1020.9 hPa NNE 9.0 km/h 16.3 km/h 58 % 0.0 mm
16:58 23.0 °C 14.0 °C 1020.9 hPa North 13.7 km/h 16.6 km/h 58 % 0.0 mm
17:03 23.3 °C 14.0 °C 1020.9 hPa NW 4.3 km/h 16.6 km/h 54 % 0.0 mm
17:08 23.3 °C 13.0 °C 1020.9 hPa North 8.7 km/h 15.8 km/h 53 % 0.0 mm
17:13 23.2 °C 13.0 °C 1020.9 hPa NNW 4.0 km/h 15.8 km/h 53 % 0.0 mm
17:18 23.1 °C 12.0 °C 1020.9 hPa NNW 19.8 km/h 19.8 km/h 49 % 0.0 mm
17:23 23.1 °C 11.0 °C 1020.9 hPa NW 6.4 km/h 19.8 km/h 47 % 0.0 mm
17:28 23.4 °C 13.0 °C 1020.9 hPa Calm   13.7 km/h 50 % 0.0 mm
17:33 23.6 °C 13.0 °C 1020.9 hPa WNW 4.0 km/h 12.2 km/h 50 % 0.0 mm
17:38 23.6 °C 12.0 °C 1020.9 hPa NNW 8.7 km/h 14.0 km/h 46 % 0.0 mm
17:42 23.8 °C 12.0 °C 1020.9 hPa NW 11.9 km/h 14.0 km/h 47 % 0.0 mm
17:47 23.5 °C 12.0 °C 1020.9 hPa SSW 9.7 km/h 12.2 km/h 46 % 0.0 mm
17:52 23.7 °C 12.0 °C 1020.9 hPa NNW 7.2 km/h 12.2 km/h 47 % 0.0 mm
17:57 23.5 °C 11.0 °C 1020.9 hPa North 4.7 km/h 13.0 km/h 45 % 0.0 mm
18:02 23.6 °C 11.0 °C 1021.9 hPa NW 6.1 km/h 13.0 km/h 45 % 0.0 mm
18:07 23.6 °C 12.0 °C 1021.9 hPa NNW 6.4 km/h 13.0 km/h 46 % 0.0 mm
18:12 23.5 °C 11.0 °C 1021.9 hPa NW 7.6 km/h 12.6 km/h 45 % 0.0 mm
18:17 23.1 °C 10.0 °C 1020.9 hPa North 6.9 km/h 14.0 km/h 44 % 0.0 mm
18:23 23.2 °C 11.0 °C 1020.9 hPa NNE 9.0 km/h 15.8 km/h 46 % 0.0 mm
18:28 23.0 °C 10.0 °C 1020.9 hPa North 3.2 km/h 15.8 km/h 44 % 0.0 mm
18:33 23.2 °C 11.0 °C 1020.9 hPa North 2.6 km/h 14.0 km/h 45 % 0.0 mm
18:38 23.2 °C 10.0 °C 1020.9 hPa North 9.3 km/h 13.7 km/h 43 % 0.0 mm
18:43 23.0 °C 10.0 °C 1020.9 hPa North 5.0 km/h 14.0 km/h 43 % 0.0 mm
18:48 22.9 °C 10.0 °C 1021.9 hPa North 4.7 km/h 17.2 km/h 44 % 0.0 mm
18:53 23.1 °C 10.0 °C 1021.9 hPa NNW 4.7 km/h 17.2 km/h 44 % 0.0 mm
18:58 23.0 °C 10.0 °C 1021.9 hPa North 10.8 km/h 11.6 km/h 44 % 0.0 mm
19:03 22.8 °C 10.0 °C 1021.9 hPa NW 5.8 km/h 12.6 km/h 44 % 0.0 mm
19:08 22.5 °C 10.0 °C 1021.9 hPa NNW 9.7 km/h 12.6 km/h 44 % 0.0 mm
19:13 22.4 °C 10.0 °C 1021.9 hPa North 10.8 km/h 12.6 km/h 45 % 0.0 mm
19:18 22.4 °C 10.0 °C 1021.9 hPa NW 5.0 km/h 11.9 km/h 44 % 0.0 mm
19:23 22.7 °C 10.0 °C 1021.9 hPa NNW 4.7 km/h 11.9 km/h 44 % 0.0 mm
19:28 22.6 °C 10.0 °C 1021.9 hPa WNW 9.3 km/h 11.6 km/h 44 % 0.0 mm
19:33 22.3 °C 9.0 °C 1021.9 hPa NNW 6.1 km/h 13.0 km/h 43 % 0.0 mm
19:38 22.2 °C 9.0 °C 1021.9 hPa NNE 6.1 km/h 13.0 km/h 43 % 0.0 mm
19:43 22.1 °C 9.0 °C 1021.9 hPa NNE 6.1 km/h 10.1 km/h 44 % 0.0 mm
19:48 22.0 °C 9.0 °C 1021.9 hPa North 5.8 km/h 9.7 km/h 44 % 0.0 mm
19:53 21.9 °C 10.0 °C 1021.9 hPa NNE 1.4 km/h 8.7 km/h 46 % 0.0 mm
19:58 21.9 °C 10.0 °C 1021.9 hPa North 6.1 km/h 7.9 km/h 46 % 0.0 mm
20:03 21.8 °C 9.0 °C 1021.9 hPa West 5.5 km/h 9.3 km/h 45 % 0.0 mm
20:08 21.4 °C 9.0 °C 1021.9 hPa North 9.0 km/h 10.1 km/h 46 % 0.0 mm
20:14 21.5 °C 10.0 °C 1021.9 hPa NNW 2.1 km/h 10.1 km/h 47 % 0.0 mm
20:19 21.4 °C 10.0 °C 1021.9 hPa NNE 1.4 km/h 7.9 km/h 47 % 0.0 mm
20:24 21.3 °C 10.0 °C 1021.9 hPa Calm   7.9 km/h 48 % 0.0 mm
20:29 21.0 °C 9.0 °C 1021.9 hPa NNW 4.7 km/h 7.9 km/h 47 % 0.0 mm
20:34 20.6 °C 9.0 °C 1021.9 hPa NNE 3.2 km/h 7.9 km/h 48 % 0.0 mm
20:35 20.6 °C 9.0 °C 1021.9 hPa NNW 4.3 km/h 7.9 km/h 48 % 0.0 mm
20:40 20.1 °C 9.0 °C 1021.9 hPa North 5.0 km/h 7.2 km/h 49 % 0.0 mm
20:45 19.9 °C 10.0 °C 1021.9 hPa Calm   7.2 km/h 51 % 0.0 mm
20:50 19.8 °C 9.0 °C 1021.9 hPa NNW 3.5 km/h 7.2 km/h 51 % 0.0 mm
20:55 19.5 °C 9.0 °C 1021.9 hPa NW 5.0 km/h 7.9 km/h 51 % 0.0 mm
21:00 19.2 °C 9.0 °C 1021.9 hPa Calm   7.9 km/h 52 % 0.0 mm
21:05 18.9 °C 10.0 °C 1022.9 hPa NNE 3.5 km/h 6.4 km/h 54 % 0.0 mm
21:10 18.6 °C 9.0 °C 1022.9 hPa Calm   3.5 km/h 55 % 0.0 mm
21:15 18.4 °C 9.0 °C 1022.9 hPa North 2.6 km/h 5.8 km/h 56 % 0.0 mm
21:20 18.1 °C 9.0 °C 1022.9 hPa Calm   6.1 km/h 57 % 0.0 mm
21:25 17.9 °C 10.0 °C 1022.9 hPa Calm   6.1 km/h 59 % 0.0 mm
21:30 17.7 °C 10.0 °C 1022.9 hPa North 3.2 km/h 4.0 km/h 60 % 0.0 mm
21:35 17.3 °C 10.0 °C 1022.9 hPa Calm   3.5 km/h 61 % 0.0 mm
21:40 17.1 °C 10.0 °C 1022.9 hPa Calm   3.5 km/h 63 % 0.0 mm
21:45 16.8 °C 10.0 °C 1022.9 hPa Calm     64 % 0.0 mm
21:50 16.6 °C 10.0 °C 1022.9 hPa Calm     66 % 0.0 mm
21:55 16.3 °C 10.0 °C 1022.9 hPa Calm     66 % 0.0 mm
22:00 16.1 °C 10.0 °C 1022.9 hPa Calm     67 % 0.0 mm
22:05 15.9 °C 10.0 °C 1022.9 hPa Calm   3.2 km/h 68 % 0.0 mm
22:11 15.8 °C 10.0 °C 1022.9 hPa North 4.7 km/h 4.7 km/h 69 % 0.0 mm
22:16 15.6 °C 11.0 °C 1022.9 hPa NE 4.7 km/h 7.6 km/h 71 % 0.0 mm
22:21 15.5 °C 11.0 °C 1022.9 hPa NE 5.0 km/h 7.6 km/h 71 % 0.0 mm
22:26 15.3 °C 11.0 °C 1022.9 hPa Calm   6.4 km/h 72 % 0.0 mm
22:31 15.0 °C 10.0 °C 1022.9 hPa Calm   6.4 km/h 72 % 0.0 mm
22:36 14.6 °C 10.0 °C 1022.9 hPa Calm   6.4 km/h 74 % 0.0 mm
22:41 14.4 °C 10.0 °C 1022.9 hPa Calm     74 % 0.0 mm
22:46 14.0 °C 10.0 °C 1022.9 hPa Calm   3.5 km/h 74 % 0.0 mm
22:51 13.7 °C 10.0 °C 1022.9 hPa Calm   3.5 km/h 75 % 0.0 mm
23:01 13.2 °C 10.0 °C 1022.9 hPa Calm     77 % 0.0 mm
23:06 12.9 °C 10.0 °C 1022.9 hPa Calm     79 % 0.0 mm
23:11 12.7 °C 9.0 °C 1022.9 hPa Calm     79 % 0.0 mm
23:16 12.5 °C 10.0 °C 1022.9 hPa Calm     80 % 0.0 mm
23:21 12.5 °C 10.0 °C 1022.9 hPa Calm     81 % 0.0 mm
23:26 12.2 °C 9.0 °C 1022.9 hPa Calm     82 % 0.0 mm
23:31 12.1 °C 9.0 °C 1022.9 hPa Calm     82 % 0.0 mm
23:36 11.9 °C 9.0 °C 1022.9 hPa Calm     83 % 0.0 mm
23:41 11.8 °C 9.0 °C 1022.9 hPa Calm   4.3 km/h 84 % 0.0 mm
23:47 11.7 °C 9.0 °C 1022.9 hPa Calm   4.3 km/h 84 % 0.0 mm
23:52 11.5 °C 9.0 °C 1022.9 hPa Calm   2.6 km/h 84 % 0.0 mm
23:57 11.4 °C 9.0 °C 1022.9 hPa Calm     85 % 0.0 mm
Le Gheer Warneton
Courtoisie de Weather Underground - 2.25 mb

Mise a jour : 18/12/2017 23:22:12
Généré par Cumulus 1.9.4 (1099)